Regional Weather Roundup
Issued by NWS

Home | Current Version | Previous Version | Graphics & Text | Print | Product List | Glossary On
Versions: 1 2 3 4 5 6 7 8 9 10 11 12 13 14 15 16 17 18 19 20 21 22 23 24 25 26 27 28 29 30 31 32 33 34 35 36 37 38 39 40 41 42 43 44 45 46 47 48 49 50
000
ASUS45 KABQ 292001
RWRNM
NEW MEXICO REGIONAL WEATHER ROUNDUP
NATIONAL WEATHER SERVICE ALBUQUERQUE NM
200 PM MDT SUN MAY 29 2016

NOTE: "FAIR" MEANS FEW OR NO CLOUDS BELOW 12,000 FEET AGL WITH NO
       SIGNIFICANT WEATHER OR OBSTRUCTIONS TO VISION.

      THIS PRODUCT IS RELEASED AS TWO VERSIONS.  ONE VERSION NEAR
      THE TOP OF THE HOUR CONTAINING PRELIMINARY DATA FROM ALBUQUERQUE
      AND OTHER STATIONS.  A FINAL VERSION WITH ADDITIONAL DATA IS
      ISSUED ABOUT 10 MINUTES AFTER THE HOUR.

NMZ501-503-504-510>518-292100-
NORTHWEST PLATEAU/NORTHCENTRAL MOUNTAINS

CITY           SKY/WX    TMP DP  RH WIND       PRES   REMARKS
FARMINGTON     FAIR      81   6   5 S8        30.08F
SANTA FE       FAIR      81  11   7 S8G26     30.16F
TAOS           FAIR      73  16  11 SW22      30.21F

$$
NMZ402-403-502-505>509-292100-
WESTCENTRAL MOUNTAINS/SOUTHWEST MOUNTAINS

CITY           SKY/WX    TMP DP  RH WIND       PRES   REMARKS
GALLUP         FAIR      76  18  11 MISG      30.16F
GRANTS         FAIR      79  12   8 SE15G23   30.18F
SILVER CITY      N/A     81  19  10 SW14G24   30.17F

$$
NMZ407-409-411-412-292100-
SOUTHERN DESERTS

CITY           SKY/WX    TMP DP  RH WIND       PRES   REMARKS
LORDSBURG      FAIR      88  30  12 S14G24    30.07F
DEMING         FAIR      88  27  11 SW17G24   30.08F
HOLLOMAN AFB   FAIR      89  18   7 SW8G20    30.05F
ALAMOGORDO     FAIR      88  21   8 W9        30.08F
T OR C         FAIR      88  18   7 SW16G22   30.08F

$$
NMZ519>523-292100-
CENTRAL VALLEYS/CENTRAL HIGHLANDS

CITY           SKY/WX    TMP DP  RH WIND       PRES   REMARKS
ALBUQUERQUE    FAIR      83  14   7 S22G30    30.12F
DOUBLE EAGLE   MOSUNNY   81  16   9 S21G33    30.15F
CLINES CORNERS FAIR      75  15  10 S13G22    30.21F
BELEN          FAIR      86  12   6 S18G26    30.09F
SOCORRO        NOT AVBL

$$
NMZ524>526-539-540-292100-
SOUTHCENTRAL MOUNTAINS

CITY           SKY/WX    TMP DP  RH WIND       PRES   REMARKS
RUIDOSO        NOT AVBL

$$
NMZ527>531-292100-
NORTHEAST HIGHLANDS/NORTHEAST PLAINS

CITY           SKY/WX    TMP DP  RH WIND       PRES   REMARKS
LAS VEGAS      FAIR      74  33  22 S14G26    30.22F
RATON          TSTM      66  29  24 S30G40    30.19F
CLAYTON        FAIR      82  51  34 S21G29    30.11F

$$
NMZ532>537-292100-
EASTCENTRAL PLAINS

CITY           SKY/WX    TMP DP  RH WIND       PRES   REMARKS
TUCUMCARI      LGT RAIN  67  54  63 E15       30.08S
CANNON AFB     PTSUNNY   78  60  54 S18G28    30.10F
CLOVIS AIRPORT FAIR      79  61  53 SW22G28   30.09F

$$
NMZ028-029-538-292100-
SOUTHEAST PLAINS

CITY           SKY/WX    TMP DP  RH WIND       PRES   REMARKS
ROSWELL        FAIR      89  52  28 SE16G26   30.05F
ARTESIA        FAIR      86  55  35 SE16      30.04F
CARLSBAD       FAIR      85  60  42 SE21G29   30.03F
HOBBS          MOSUNNY   81  63  54 SE17G23   30.12F


$$




USA.gov is the U.S. government's official web portal to all federal, state and local government web resources and services.